Location: Hamburg
(53.5554°N, 9.9941°E)
Time: 00:12:27
(UTC+01:00)

ISS - Pass Details

Date: 11 January 2018
Orbit: 401 x 406 km, 51.6° (Epoch: 17 January)

Event Time Altitude Azimuth Distance (km) Brightness Sun altitude
Exits shadow 07:15:07 11° 253° (WSW) 1,421 -1.5 -10.7°
Maximum altitude 07:17:05 16° 215° (SW) 1,142 -1.7 -10.4°
Drops below altitude 10° 07:19:13 10° 174° (S) 1,461 -0.6 -10.2°
Sets 07:21:49 0° 152° (SSE) 2,319 0.9 -9.8°
